Date String (YYYY-MM-DD hh:mm:ss) UTC,Instrument flags,absolute air pressure of the measurement (hPa),sample flow rate (lpm),inlet stack bypass flow (lpm),air temperature of the measurement (°C),ambient temperature measured by the external sensor (°C),aerosol sample conditioner tube jacket temperature (°C),OPC LED temperature (°C),internal box temperature (°C),relative humidity of the measurement (%),span deviation,mass concentration of particles derived from Lorenz-Mie calculation of OPC scattering (μg/m³),mass concentration of particles derived from Lorenz-Mie calculation of OPC scattering (μg/m³),mass concentration of particles derived from Lorenz-Mie calculation of OPC scattering (μg/m³)
DateTimeUTC,F1_M11,P_M11,Q1_M11,Q2_M11,T1_M11,T2_M11,T3_M11,T4_M11,T5_M11,U1_M11,ZSPAN_M11,X0_M11,X2_M11,X1_M11
2023-07-27 21:00:00,SystemResetWarning,0832.7,4.98,000.00,028.5,026.8,000.0,036.7,030.2,18.7,0000.0,0008.21,0002.24,0001.46
2023-07-27 21:01:00,SystemResetWarning,0832.7,4.99,000.00,028.5,026.2,000.0,036.7,030.1,18.0,0000.0,0008.37,0002.33,0001.48
2023-07-27 21:02:00,SystemResetWarning,0832.7,5.00,000.00,028.5,024.9,000.0,036.6,030.0,18.5,0000.0,0009.17,0002.35,0001.51
2023-07-27 21:03:00,SystemResetWarning,0832.7,5.01,000.00,028.4,024.9,000.0,036.5,029.9,17.6,0000.0,0009.17,0002.36,0001.53
2023-07-27 21:04:00,SystemResetWarning,0832.7,5.01,000.00,028.4,025.2,000.0,036.6,029.8,18.8,0000.0,0009.70,0002.42,0001.53
2023-07-27 21:05:00,SystemResetWarning,0832.6,5.00,000.00,028.4,025.7,000.0,036.6,029.8,20.3,0000.0,0009.63,0002.41,0001.53
2023-07-27 21:06:00,SystemResetWarning,0832.7,5.00,000.00,028.4,026.1,000.0,036.6,030.0,18.3,0000.0,0009.10,0002.41,0001.54
2023-07-27 21:07:00,SystemResetWarning,0832.7,4.99,000.00,028.4,026.6,000.0,036.7,030.1,18.8,0000.0,0008.79,0002.42,0001.52
2023-07-27 21:08:00,SystemResetWarning,0832.7,5.00,000.00,028.5,027.0,000.0,036.7,030.2,18.4,0000.0,0008.22,0002.44,0001.51
2023-07-27 21:09:00,SystemResetWarning,0832.7,5.00,000.00,028.5,027.0,000.0,036.7,030.3,18.5,0000.0,0007.78,0002.40,0001.51
2023-07-27 21:10:00,SystemResetWarning,0832.6,5.00,000.00,028.5,025.7,000.0,036.6,030.1,18.4,0000.0,0007.74,0002.34,0001.50
2023-07-27 21:11:00,SystemResetWarning,0832.6,5.01,000.00,028.5,024.8,000.0,036.6,029.9,17.1,0000.0,0008.38,0002.38,0001.49
2023-07-27 21:12:00,SystemResetWarning,0832.7,5.02,000.00,028.4,025.2,000.0,036.5,029.9,17.6,0000.0,0008.48,0002.42,0001.48
2023-07-27 21:13:00,SystemResetWarning,0832.7,4.99,000.00,028.4,025.6,000.0,036.6,029.9,18.4,0000.0,0007.74,0002.39,0001.48
2023-07-27 21:14:00,SystemResetWarning,0832.6,5.00,000.00,028.4,026.0,000.0,036.6,030.0,18.0,0000.0,0007.40,0002.39,0001.47
2023-07-27 21:15:00,SystemResetWarning,0832.7,5.00,000.00,028.4,026.5,000.0,036.7,030.1,16.8,0000.0,0006.38,0002.40,0001.47
2023-07-27 21:16:00,SystemResetWarning,0832.7,4.99,000.00,028.5,026.9,000.0,036.7,030.2,16.8,0000.0,0006.04,0002.34,0001.46
2023-07-27 21:17:00,SystemResetWarning,0832.7,4.98,000.00,028.5,026.2,000.0,036.7,030.1,16.9,0000.0,0006.15,0002.32,0001.46
2023-07-27 21:18:00,SystemResetWarning,0832.6,5.01,000.00,028.4,024.7,000.0,036.6,029.9,16.8,0000.0,0006.29,0002.36,0001.47
2023-07-27 21:19:00,SystemResetWarning,0832.6,5.01,000.00,028.4,024.7,000.0,036.5,029.8,17.6,0000.0,0005.85,0002.35,0001.47
2023-07-27 21:20:00,SystemResetWarning,0832.6,5.00,000.00,028.3,025.1,000.0,036.5,029.7,17.3,0000.0,0005.98,0002.34,0001.47
2023-07-27 21:21:00,SystemResetWarning,0832.6,5.00,000.00,028.3,025.6,000.0,036.6,029.8,18.1,0000.0,0006.13,0002.35,0001.47
2023-07-27 21:22:00,SystemResetWarning,0832.7,5.01,000.00,028.3,026.0,000.0,036.6,029.9,18.2,0000.0,0005.78,0002.37,0001.47
2023-07-27 21:23:00,SystemResetWarning,0832.6,5.01,000.00,028.4,026.5,000.0,036.7,030.0,18.2,0000.0,0006.61,0002.26,0001.47
2023-07-27 21:24:00,SystemResetWarning,0832.6,4.99,000.00,028.4,026.9,000.0,036.7,030.2,18.6,0000.0,0007.39,0002.24,0001.46
2023-07-27 21:25:00,SystemResetWarning,0832.6,4.99,000.00,028.5,026.2,000.0,036.6,030.1,17.8,0000.0,0007.92,0002.27,0001.44
2023-07-27 21:26:00,SystemResetWarning,0832.5,5.01,000.00,028.4,024.8,000.0,036.5,029.9,19.4,0000.0,0007.92,0002.20,0001.41
2023-07-27 21:27:00,SystemResetWarning,0832.5,5.00,000.00,028.3,024.8,000.0,036.5,029.8,18.3,0000.0,0008.04,0002.20,0001.39
2023-07-27 21:28:00,SystemResetWarning,0832.5,5.01,000.00,028.3,025.1,000.0,036.5,029.7,18.5,0000.0,0008.28,0002.16,0001.36
2023-07-27 21:29:00,SystemResetWarning,0832.6,5.00,000.00,028.3,025.6,000.0,036.5,029.7,18.1,0000.0,0008.11,0002.06,0001.32
2023-07-27 21:30:00,SystemResetWarning,0832.6,5.01,000.00,028.3,026.0,000.0,036.6,029.9,17.3,0000.0,0008.10,0002.03,0001.31
2023-07-27 21:31:00,SystemResetWarning,0832.7,5.00,000.00,028.3,026.5,000.0,036.6,030.0,19.0,0000.0,0007.96,0001.98,0001.29
2023-07-27 21:32:00,SystemResetWarning,0832.7,5.00,000.00,028.4,026.9,000.0,036.6,030.1,17.9,0000.0,0007.96,0001.97,0001.27
2023-07-27 21:33:00,SystemResetWarning,0832.6,4.98,000.00,028.4,026.3,000.0,036.6,030.0,17.3,0000.0,0007.56,0001.90,0001.25
2023-07-27 21:34:00,SystemResetWarning,0832.6,5.00,000.00,028.4,024.9,000.0,036.5,029.8,17.6,0000.0,0006.54,0001.88,0001.24
2023-07-27 21:35:00,SystemResetWarning,0832.6,5.02,000.00,028.3,024.9,000.0,036.4,029.8,17.5,0000.0,0005.40,0001.87,0001.21
2023-07-27 21:36:00,SystemResetWarning,0832.6,4.99,000.00,028.3,025.3,000.0,036.5,029.7,17.6,0000.0,0004.58,0001.88,0001.21
2023-07-27 21:37:00,SystemResetWarning,0832.6,5.00,000.00,028.3,025.7,000.0,036.5,029.8,17.4,0000.0,0004.43,0001.90,0001.22
2023-07-27 21:38:00,SystemResetWarning,0832.6,5.00,000.00,028.3,026.2,000.0,036.6,029.9,17.9,0000.0,0004.32,0001.93,0001.24
2023-07-27 21:39:00,SystemResetWarning,0832.6,4.99,000.00,028.4,026.6,000.0,036.6,030.0,17.9,0000.0,0003.60,0001.92,0001.25
2023-07-27 21:40:00,SystemResetWarning,0832.6,5.00,000.00,028.4,027.0,000.0,036.6,030.1,16.8,0000.0,0004.86,0001.93,0001.25
2023-07-27 21:41:00,SystemResetWarning,0832.7,5.01,000.00,028.5,027.0,000.0,036.7,030.2,17.8,0000.0,0005.04,0001.94,0001.26
2023-07-27 21:42:00,SystemResetWarning,0832.6,4.98,000.00,028.5,025.7,000.0,036.6,030.1,17.4,0000.0,0005.02,0001.91,0001.25
2023-07-27 21:43:00,SystemResetWarning,0832.5,5.01,000.00,028.4,024.8,000.0,036.5,029.9,17.5,0000.0,0004.93,0001.90,0001.26
2023-07-27 21:44:00,SystemResetWarning,0832.5,5.01,000.00,028.4,025.1,000.0,036.5,029.8,17.7,0000.0,0004.99,0001.93,0001.26
2023-07-27 21:45:00,SystemResetWarning,0832.5,4.99,000.00,028.3,025.5,000.0,036.5,029.8,17.8,0000.0,0004.97,0001.95,0001.27
2023-07-27 21:46:00,SystemResetWarning,0832.6,5.00,000.00,028.3,026.0,000.0,036.6,029.9,18.1,0000.0,0005.99,0001.95,0001.30
2023-07-27 21:47:00,SystemResetWarning,0832.5,5.00,000.00,028.4,026.4,000.0,036.6,030.0,18.3,0000.0,0006.02,0001.93,0001.31
2023-07-27 21:48:00,SystemResetWarning,0832.5,5.01,000.00,028.4,026.8,000.0,036.6,030.1,17.5,0000.0,0005.96,0001.90,0001.31
2023-07-27 21:49:00,SystemResetWarning,0832.5,4.99,000.00,028.5,026.9,000.0,036.7,030.2,17.0,0000.0,0006.29,0001.89,0001.32
2023-07-27 21:50:00,SystemResetWarning,0832.5,4.99,000.00,028.5,025.6,000.0,036.6,030.0,17.5,0000.0,0007.37,0001.88,0001.33
2023-07-27 21:51:00,SystemResetWarning,0832.5,5.01,000.00,028.4,024.7,000.0,036.5,029.8,17.3,0000.0,0006.45,0001.90,0001.34
2023-07-27 21:52:00,SystemResetWarning,0832.3,5.00,000.00,028.3,025.0,000.0,036.5,029.7,17.4,0000.0,0005.91,0001.91,0001.36
2023-07-27 21:53:00,SystemResetWarning,0832.3,4.99,000.00,028.3,025.4,000.0,036.5,029.7,17.5,0000.0,0007.42,0001.93,0001.38
2023-07-27 21:54:00,SystemResetWarning,0832.3,5.00,000.00,028.3,025.8,000.0,036.6,029.8,18.3,0000.0,0008.00,0001.97,0001.39
2023-07-27 21:55:00,SystemResetWarning,0832.3,5.01,000.00,028.3,026.3,000.0,036.6,030.0,20.3,0000.0,0007.96,0001.95,0001.40
2023-07-27 21:56:00,SystemResetWarning,0832.3,5.01,000.00,028.4,026.7,000.0,036.6,030.1,18.9,0000.0,0008.06,0001.94,0001.41
2023-07-27 21:57:00,SystemResetWarning,0832.3,4.98,000.00,028.5,027.1,000.0,036.7,030.2,18.7,0000.0,0007.69,0001.97,0001.41
2023-07-27 21:58:00,SystemResetWarning,0832.3,4.99,000.00,028.5,026.6,000.0,036.6,030.1,18.1,0000.0,0007.76,0001.98,0001.40
2023-07-27 21:59:00,SystemResetWarning,0832.3,5.01,000.00,028.4,025.1,000.0,036.5,029.9,18.5,0000.0,0008.71,0001.97,0001.42
